Temperature
27 27 27 27 27 27 27 28 28 28 28 28 27 27 25 24 24 23 23 22 21 21 21 20 20 20 20 20 19 19 19 19 19 19 19 18 18 18 18 18 18 18 18 17
25 26 26 26 27 27 27 27 28 28 28 27 26 25 24 24 23 23 22 22 21 20 20 20 19 19 19 19 19 19 19 18 19 18 18 18 18 18 18 18 18 17 17 17
25 26 25 25 27 27 27 27 27 27 27 27 26 25 24 23 23 22 21 21 20 20 19 19 19 19 19 19 19 18 18 18 18 18 18 18 18 17 17 17 17 17 17 17
24 24 23 26 27 26 26 26 26 26 26 25 25 23 22 22 22 21 20 20 20 20 19 19 19 19 19 18 18 18 18 18 18 17 17 17 17 17 17 17 17 17 17 17
23 23 24 25 25 25 25 25 25 25 25 24 23 23 22 21 20 20 20 19 19 19 19 18 18 18 18 18 18 18 18 17 17 17 17 17 17 17 17 17 17 17 17 16
22 22 23 25 24 24 24 24 24 24 23 23 23 24 23 20 19 19 18 18 18 18 18 18 17 18 18 18 18 17 17 17 17 17 17 17 16 16 16 16 16 16 16 16
21 22 23 23 23 23 22 23 22 22 22 22 22 22 20 19 18 18 17 17 17 17 17 17 17 17 17 17 17 17 17 17 17 17 17 16 16 16 16 16 15 16 15 15
21 21 22 22 22 22 21 20 20 20 20 20 20 19 18 18 17 17 17 17 17 17 17 16 16 16 16 16 16 16 16 16 16 16 16 16 16 16 15 15 15 15 15 15
21 21 20 19 20 19 19 19 19 19 19 18 19 18 18 18 17 17 17 16 16 16 16 16 16 16 16 16 16 16 16 16 15 15 15 15 15 15 15 15 15 15 15 15
19 20 20 19 18 18 18 18 18 18 17 18 18 18 17 17 17 16 16 16 16 16 16 16 16 15 15 15 15 15 15 15 15 15 15 15 15 15 15 15 15 15 15 15
18 19 18 18 18 17 17 17 17 17 17 17 17 17 17 16 16 16 15 15 15 15 15 15 15 15 15 15 15 15 15 15 14 15 15 14 14 14 14 14 14 14 14 14
18 18 18 17 17 16 16 16 16 16 16 16 16 16 16 16 15 15 15 15 15 15 15 15 15 15 15 14 14 14 14 14 14 14 14 14 14 14 14 14 14 14 14 13
16 16 16 16 16 15 15 15 15 15 16 16 15 15 15 15 15 14 14 14 14 14 14 14 14 14 14 14 14 14 13 13 14 14 14 14 14 14 14 13 13 13 13 13
15 15 15 15 15 15 15 15 15 15 15 15 15 15 15 14 14 14 14 14 14 14 14 14 14 13 13 13 13 13 13 13 13 13 13 13 13 13 13 13 13 12 12 12
14 14 15 15 15 14 14 14 15 15 15 15 14 14 14 14 14 14 14 14 13 13 13 13 13 13 13 13 13 13 13 13 13 13 13 13 13 13 13 12 12 12 12 12
14 14 14 14 14 14 14 14 14 14 14 14 14 14 14 14 14 14 13 13 13 13 13 13 13 13 13 12 12 13 13 13 12 12 13 13 13 12 12 12 12 12 12 12
13 14 14 14 14 14 14 14 14 14 14 14 14 13 13 13 13 13 13 13 13 13 13 12 12 12 12 12 12 12 12 12 12 12 12 12 12 12 12 12 12 11 11 11
13 13 13 13 13 13 13 13 13 13 13 13 13 13 13 13 13 13 13 13 12 12 12 12 12 12 12 12 12 12 12 12 12 12 12 12 12 12 12 11 11 11 11 11
12 12 12 12 12 12 12 13 13 13 13 13 13 13 12 12 12 12 12 12 12 12 12 12 12 12 12 12 12 12 12 12 12 12 11 11 11 11 11 11 11 11 11 10
12 11 12 12 12 12 12 12 12 12 12 12 12 12 12 12 12 12 12 12 12 12 12 12 12 12 12 12 12 12 11 11 11 11 11 11 11 11 11 11 10 10 10 10
11 11 11 11 11 11 11 11 12 12 12 12 12 12 12 12 12 12 12 12 12 12 12 12 12 12 11 11 11 11 11 11 11 11 11 10 10 10 10 10 10 10 9 9
11 11 11 11 11 11 11 11 11 11 11 11 11 11 11 11 12 12 11 11 12 12 11 11 11 11 11 11 11 11 11 11 10 10 10 10 10 10 10 9 9 9 9 9
11 11 11 11 11 11 10 11 11 11 11 11 11 11 11 11 11 11 11 11 11 11 11 11 11 11 11 11 11 10 10 10 10 10 10 9 9 9 9 9 9 8 8 8
10 10 10 10 10 10 10 10 10 10 10 10 10 10 10 11 11 11 11 11 11 11 10 11 11 10 10 10 10 10 10 10 10 9 9 9 9 9 9 8 8 8 8 8
10 10 10 10 10 10 10 10 10 10 10 10 10 10 10 10 10 10 10 10 10 10 10 10 10 10 10 10 10 9 9 9 9 9 9 9 8 8 8 8 8 8 7 7
10 10 10 10 10 10 10 10 10 10 10 10 10 10 10 10 10 10 10 10 10 9 9 9 9 9 9 9 9 9 9 9 9 8 8 8 8 8 7 7 7 7 7 7
10 10 10 10 10 10 10 10 10 10 10 10 10 10 10 10 10 9 9 9 9 9 9 9 9 9 9 9 9 9 8 8 8 8 8 8 7 7 7 7 7 7 6 6
Wind_Speed
11 10 10 12 13 13 15 15 15 13 12 8 4 4 3 2 2 2 2 2 2 2 3 4 5 5 6 7 8 8 8 8 8 7 7 7 7 8 8 8 8 8 8 8
12 12 12 15 15 15 16 16 16 15 12 6 4 3 3 3 3 3 3 2 2 2 2 2 3 4 5 7 7 7 7 7 6 6 6 7 8 8 8 9 8 8 8 8
13 11 12 17 15 15 15 14 14 15 10 5 4 4 4 3 3 3 3 2 2 1 2 2 2 2 3 5 6 6 7 6 6 7 7 7 8 8 9 9 8 8 9 8
11 11 16 9 4 8 11 11 11 10 7 6 5 5 4 3 3 2 2 2 2 1 1 1 1 1 2 3 4 5 6 6 7 7 7 7 8 9 9 8 8 8 8 8
11 15 15 11 6 6 9 10 7 7 7 6 5 5 3 2 3 2 2 1 1 1 1 1 0 1 1 1 2 3 5 6 7 7 7 7 8 8 8 8 8 8 8 8
12 14 15 8 2 3 7 12 5 5 6 5 5 8 3 2 3 2 1 1 1 1 1 1 0 0 0 1 2 3 4 5 5 6 7 7 7 7 7 7 8 8 8 8
16 16 13 3 0 3 10 5 2 3 4 5 5 4 3 1 1 1 1 1 1 1 0 0 0 0 1 1 2 3 4 4 4 5 6 7 6 6 6 7 7 7 7 8
12 15 11 2 2 4 4 5 4 4 3 4 3 1 1 1 1 1 1 2 1 1 1 0 1 1 1 2 3 4 4 4 4 5 5 5 5 5 6 6 6 7 6 7
8 6 2 2 4 5 5 6 5 5 4 4 4 4 3 2 2 2 2 2 2 2 2 1 1 2 2 3 3 4 4 4 4 4 4 5 5 6 6 6 6 6 5 6
9 10 7 7 7 6 6 7 6 6 5 6 6 5 4 3 3 3 3 3 3 3 3 3 3 3 3 3 4 4 4 4 4 4 5 4 5 6 6 6 6 5 6 6
13 12 11 9 8 8 8 7 7 7 7 7 6 6 5 4 4 4 4 4 4 4 4 4 3 3 3 3 3 3 4 4 4 4 3 3 3 4 5 4 4 5 5 6
12 10 10 11 10 9 9 9 9 8 8 7 6 6 6 5 4 4 4 4 4 5 5 4 4 3 3 2 2 3 3 4 3 3 3 4 3 2 1 3 1 3 5 5
12 12 12 12 11 10 9 10 9 8 8 7 6 6 6 5 5 5 5 5 5 5 5 5 4 3 3 2 3 3 4 4 4 4 4 4 4 3 3 2 2 3 4 5
12 12 13 12 11 10 10 10 9 8 7 6 6 6 6 6 5 5 5 5 5 5 5 5 4 4 3 3 3 3 4 4 5 4 4 4 4 4 4 4 3 2 2 5
13 13 13 13 12 11 9 8 8 8 7 6 6 6 6 6 6 5 5 5 5 6 5 5 5 4 3 4 3 4 4 4 4 4 4 4 4 4 4 4 4 3 3 2
12 12 12 12 11 10 8 8 8 7 7 6 6 6 6 6 6 5 5 5 6 6 5 5 5 4 4 4 4 4 4 3 4 4 4 4 4 4 4 3 3 3 3 3
12 12 11 10 9 9 8 7 7 7 7 7 7 6 6 6 6 6 6 6 5 5 5 5 4 4 4 4 5 4 4 3 4 4 4 4 4 4 3 3 3 3 4 2
11 11 10 9 8 8 8 7 7 7 7 6 6 6 6 6 6 5 5 5 5 5 5 4 4 4 4 4 4 4 4 4 4 3 3 3 3 3 3 3 3 4 3 2
8 7 7 7 7 7 7 7 6 6 6 5 5 6 5 6 5 5 5 5 5 6 5 4 3 4 4 4 4 4 4 4 3 3 2 2 2 3 3 3 3 4 3 3
4 4 4 4 4 5 6 5 5 5 5 5 5 5 5 5 5 4 4 5 5 5 4 4 4 3 3 3 3 3 3 3 3 2 2 2 2 2 3 3 3 3 3 3
3 1 1 2 2 3 3 4 4 4 4 4 4 5 5 4 4 4 4 5 4 3 4 4 4 3 2 2 3 3 3 2 2 2 2 2 2 2 2 2 2 2 2 2
3 2 1 1 2 2 3 3 3 3 3 3 3 3 3 4 4 4 4 4 3 1 3 3 2 0 1 3 3 2 2 2 2 2 2 2 2 2 2 2 1 1 2 2
3 3 2 2 2 2 2 2 2 2 2 3 3 3 4 3 3 3 3 2 2 1 2 1 1 1 3 4 2 1 1 2 2 2 2 2 2 2 2 2 2 1 1 2
4 4 3 2 2 2 2 2 2 2 2 3 3 3 3 2 2 2 2 1 0 1 1 2 3 2 4 2 1 1 1 1 1 1 1 1 1 1 2 2 2 2 2 2
4 4 4 3 2 2 2 1 1 1 1 1 1 1 1 1 2 2 1 0 1 1 1 2 3 3 3 1 0 0 0 0 1 1 1 1 1 1 1 2 2 2 2 2
4 4 4 3 3 2 2 2 2 2 2 2 2 2 2 1 1 0 0 1 1 1 0 1 1 2 1 0 0 0 1 1 1 1 0 0 1 1 1 2 2 2 2 1
4 3 3 3 3 3 3 2 2 3 2 2 2 2 2 2 1 1 1 1 1 1 1 1 1 0 1 0 0 0 1 1 1 1 1 1 1 1 0 1 1 1 1 1
Wind_Direction
265 272 262 252 247 239 242 253 260 261 262 265 262 267 268 249 227 214 207 193 197 202 198 198 199 199 202 202 196 196 196 199 202 203 201 202 203 206 211 212 215 220 225 227
258 256 256 255 252 247 244 249 253 258 259 268 276 263 261 251 238 226 224 218 206 192 182 181 195 200 201 201 195 193 200 203 197 196 199 202 203 205 211 215 216 216 221 225
259 256 257 249 244 244 244 245 251 254 262 264 255 263 266 271 255 247 249 249 232 211 188 182 188 189 195 199 196 197 201 202 199 201 203 206 206 208 214 216 215 217 221 224
260 255 248 254 251 250 246 245 247 256 263 265 267 267 269 284 283 270 267 266 248 231 190 177 171 170 184 186 191 199 206 210 209 209 208 205 208 211 214 218 218 220 224 228
252 249 252 246 231 235 245 247 251 257 261 268 269 247 234 358 331 300 295 294 273 223 140 92 65 100 137 187 199 213 215 219 219 217 217 213 214 215 213 214 220 222 223 227
244 251 254 254 225 252 253 247 242 256 260 265 252 246 253 3 316 323 1 25 35 65 98 99 38 50 184 207 208 231 239 233 230 226 224 223 221 217 218 218 223 228 227 229
243 248 251 274 210 226 238 261 345 285 276 265 249 290 11 11 336 29 44 38 29 14 349 16 349 12 257 283 269 261 257 246 237 231 226 223 224 221 221 224 226 234 234 233
241 247 247 75 200 245 307 343 321 303 286 278 280 309 328 319 343 3 7 8 353 328 320 305 211 219 236 259 271 269 258 247 244 239 237 226 217 220 223 227 227 228 234 239
251 260 359 334 292 299 303 298 297 293 295 283 271 274 286 292 296 306 320 325 312 296 286 274 251 240 249 267 266 257 254 246 241 239 236 229 224 220 222 224 233 234 232 243
263 258 276 284 284 283 286 287 289 289 281 275 274 279 284 287 288 288 297 297 289 282 284 287 282 278 273 275 268 248 246 246 240 230 229 229 236 233 233 233 234 236 237 241
260 271 280 270 276 279 285 284 282 279 273 271 273 276 281 284 285 287 292 296 291 289 288 288 287 289 293 295 282 256 252 253 254 247 238 245 251 262 254 255 251 243 248 249
266 282 284 287 289 289 283 280 279 278 274 271 266 271 276 280 282 281 281 286 282 284 287 289 284 283 293 300 292 274 263 257 261 259 244 241 241 256 266 251 203 225 250 257
273 285 286 287 285 283 280 278 276 272 267 267 268 269 270 273 275 278 277 275 278 282 287 285 278 274 273 273 274 276 279 279 275 269 262 252 246 244 260 263 218 232 227 227
273 276 275 277 281 278 274 272 270 268 262 260 263 264 261 258 260 267 271 273 275 275 276 275 269 268 268 262 263 272 274 273 267 266 264 263 257 255 255 258 264 279 239 207
272 271 271 275 274 272 269 261 258 257 255 253 257 261 259 256 257 263 269 269 269 267 267 269 267 268 267 263 260 261 265 269 275 279 274 268 260 254 253 252 253 259 271 245
277 274 271 269 268 266 263 261 259 259 261 258 257 260 258 253 254 260 264 263 262 265 271 274 271 268 262 258 258 254 251 249 265 274 274 268 262 259 256 252 250 259 265 264
271 270 268 268 267 265 265 265 265 262 261 261 261 258 256 251 253 258 261 259 261 266 266 266 266 264 258 251 254 258 259 238 219 251 262 267 266 262 263 263 261 266 273 275
266 266 266 269 269 268 267 266 265 262 260 260 258 254 254 253 257 263 267 268 266 265 265 265 265 260 250 243 248 257 254 254 249 257 263 261 270 265 256 260 265 271 280 247
270 265 263 264 265 261 261 264 261 257 256 252 250 250 253 256 259 266 267 263 263 264 270 270 240 244 248 248 252 245 251 248 247 250 261 266 263 267 262 260 266 271 281 284
275 265 263 263 264 264 263 264 261 253 250 248 249 246 246 249 252 257 262 264 264 268 272 271 255 248 246 236 243 248 247 247 241 242 250 260 265 269 269 269 268 271 274 277
344 315 278 272 283 285 281 274 269 262 254 252 251 250 250 254 253 251 257 264 264 263 267 251 243 245 243 251 228 242 237 230 228 231 239 253 267 265 265 271 271 273 272 273
14 18 6 349 320 305 301 285 271 268 265 265 262 254 255 256 253 254 258 268 275 286 264 249 241 170 283 258 228 225 223 222 219 227 244 256 259 259 263 266 264 270 273 272
360 356 347 332 308 302 307 297 278 282 280 272 263 259 261 269 273 268 266 277 276 274 263 260 99 129 260 245 233 210 209 213 221 233 245 250 251 253 249 246 246 257 261 268
351 350 345 341 348 342 337 336 324 308 298 285 275 271 269 263 268 271 281 163 198 238 258 101 134 204 245 234 236 234 222 232 237 237 247 250 243 241 244 245 250 254 259 263
352 347 350 355 358 347 338 329 324 327 313 319 326 306 299 315 305 326 351 53 113 209 145 133 167 218 237 250 224 235 206 205 247 241 233 241 245 240 247 252 248 249 256 262
349 350 356 356 360 346 333 333 334 345 352 352 358 6 11 9 356 9 53 122 116 95 97 154 182 216 247 260 255 245 243 184 195 213 207 231 232 240 270 288 282 275 279 291
347 354 354 358 5 4 357 353 356 360 357 354 8 26 34 29 34 45 54 65 64 57 59 57 43 13 344 1 23 315 242 210 214 215 202 230 259 268 288 313 329 343 351 348
Height
1473 1469 1469 1470 1470 1470 1471 1469 1471 1468 1467 1466 1469 1472 1475 1477 1478 1480 1480 1481 1482 1482 1483 1484 1485 1485 1487 1489 1491 1493 1494 1496 1497 1499 1501 1503 1505 1507 1509 1510 1511 1513 1514 1515
1477 1471 1470 1470 1467 1466 1466 1466 1466 1465 1466 1466 1470 1473 1474 1475 1476 1477 1478 1479 1480 1480 1481 1481 1482 1483 1485 1486 1488 1489 1491 1493 1494 1495 1497 1499 1501 1503 1505 1506 1507 1508 1509 1510
1477 1469 1471 1472 1463 1462 1462 1462 1463 1465 1464 1465 1469 1471 1473 1474 1475 1476 1477 1478 1478 1479 1479 1480 1481 1481 1482 1483 1485 1486 1488 1489 1490 1491 1493 1494 1496 1498 1500 1501 1502 1503 1504 1505
1476 1477 1484 1462 1458 1458 1460 1460 1461 1462 1464 1466 1469 1472 1473 1474 1474 1474 1475 1476 1477 1477 1478 1479 1479 1480 1480 1481 1482 1484 1485 1487 1487 1488 1489 1490 1492 1493 1495 1497 1497 1499 1499 1501
1477 1475 1468 1460 1459 1461 1463 1462 1462 1463 1465 1467 1469 1470 1471 1472 1473 1473 1473 1474 1474 1475 1476 1476 1477 1477 1478 1479 1480 1481 1482 1484 1484 1485 1486 1487 1488 1489 1490 1491 1493 1494 1495 1496
1477 1479 1474 1459 1459 1462 1464 1464 1463 1464 1465 1467 1468 1466 1466 1471 1472 1472 1472 1472 1473 1474 1475 1475 1475 1475 1476 1477 1478 1479 1480 1481 1481 1482 1483 1483 1484 1485 1487 1488 1489 1490 1491 1491
1474 1473 1462 1459 1462 1464 1469 1464 1465 1465 1466 1467 1467 1468 1470 1471 1471 1471 1471 1471 1472 1472 1473 1473 1474 1474 1474 1475 1475 1476 1477 1478 1478 1479 1479 1480 1480 1481 1483 1484 1485 1485 1486 1487
1470 1471 1465 1463 1464 1465 1465 1467 1466 1466 1467 1468 1468 1469 1469 1470 1470 1470 1470 1470 1470 1471 1471 1472 1472 1472 1472 1472 1473 1473 1474 1474 1475 1475 1476 1477 1476 1476 1478 1479 1480 1480 1481 1482
1464 1464 1466 1467 1467 1468 1469 1468 1467 1467 1468 1468 1468 1468 1468 1469 1469 1469 1469 1469 1469 1469 1469 1469 1470 1470 1469 1469 1470 1470 1470 1471 1471 1471 1472 1472 1472 1472 1473 1475 1475 1476 1476 1477
1468 1462 1465 1467 1467 1467 1467 1467 1467 1466 1467 1467 1466 1467 1467 1467 1467 1467 1467 1468 1467 1467 1467 1467 1467 1467 1466 1466 1466 1466 1466 1467 1467 1467 1467 1468 1468 1469 1469 1470 1470 1471 1471 1472
1467 1465 1465 1464 1465 1465 1466 1466 1465 1465 1464 1464 1464 1464 1465 1465 1465 1465 1465 1465 1465 1465 1464 1464 1464 1464 1463 1463 1462 1463 1463 1463 1463 1463 1463 1463 1464 1464 1464 1464 1465 1465 1466 1468
1464 1465 1466 1464 1464 1463 1463 1463 1463 1462 1461 1462 1462 1462 1462 1463 1463 1462 1463 1463 1463 1463 1462 1462 1462 1461 1461 1460 1460 1460 1459 1460 1460 1460 1460 1460 1459 1459 1459 1460 1460 1460 1461 1461
1466 1465 1464 1463 1462 1461 1460 1460 1459 1459 1459 1459 1459 1460 1460 1460 1460 1460 1460 1460 1460 1460 1459 1459 1459 1458 1458 1457 1457 1457 1456 1456 1457 1457 1456 1456 1456 1456 1455 1455 1455 1455 1455 1456
1463 1463 1461 1460 1459 1459 1458 1457 1456 1456 1456 1456 1456 1457 1457 1457 1457 1457 1457 1457 1457 1457 1456 1456 1456 1455 1455 1455 1454 1453 1453 1454 1454 1453 1453 1452 1452 1452 1451 1451 1451 1450 1451 1451
1458 1458 1457 1456 1455 1455 1454 1454 1453 1453 1453 1453 1453 1454 1454 1454 1454 1454 1454 1454 1454 1454 1453 1453 1452 1452 1452 1452 1451 1450 1451 1451 1450 1450 1449 1449 1449 1448 1448 1448 1447 1447 1447 1447
1454 1453 1452 1451 1451 1450 1450 1450 1450 1449 1450 1450 1450 1450 1451 1451 1451 1451 1451 1451 1451 1451 1450 1449 1449 1448 1448 1448 1448 1447 1447 1447 1446 1446 1446 1445 1445 1445 1445 1444 1444 1444 1444 1444
1449 1447 1447 1447 1446 1446 1446 1446 1446 1446 1446 1446 1446 1447 1448 1447 1447 1447 1447 1448 1447 1447 1446 1446 1445 1445 1445 1445 1445 1445 1444 1444 1443 1443 1443 1443 1442 1442 1441 1441 1441 1441 1440 1440
1443 1443 1443 1443 1443 1443 1442 1442 1442 1442 1443 1443 1443 1444 1444 1443 1443 1444 1444 1444 1444 1443 1443 1443 1442 1442 1442 1442 1442 1442 1442 1441 1441 1441 1440 1440 1439 1439 1439 1438 1438 1438 1437 1436
1437 1437 1438 1438 1439 1439 1439 1439 1438 1439 1439 1439 1439 1439 1440 1440 1440 1440 1441 1440 1440 1440 1440 1440 1439 1438 1439 1439 1439 1439 1439 1439 1438 1438 1438 1437 1437 1437 1436 1436 1436 1435 1435 1434
1433 1433 1434 1434 1435 1435 1435 1435 1435 1435 1436 1436 1436 1436 1437 1437 1437 1437 1437 1437 1437 1437 1437 1436 1436 1435 1436 1436 1436 1436 1436 1436 1435 1435 1435 1435 1435 1434 1434 1434 1433 1433 1432 1431
1431 1430 1431 1432 1432 1433 1433 1432 1432 1433 1433 1433 1433 1433 1434 1434 1434 1434 1434 1433 1434 1433 1433 1433 1433 1433 1433 1433 1432 1433 1433 1432 1432 1432 1432 1432 1432 1432 1431 1431 1431 1430 1429 1428
1431 1431 1431 1431 1431 1430 1430 1430 1430 1430 1430 1430 1431 1431 1431 1431 1431 1431 1431 1431 1431 1430 1430 1430 1430 1430 1430 1430 1430 1430 1430 1430 1430 1430 1430 1429 1429 1429 1428 1428 1428 1427 1426 1425
1432 1431 1430 1430 1429 1429 1428 1428 1428 1428 1428 1428 1428 1428 1428 1428 1428 1428 1428 1428 1428 1427 1427 1427 1427 1427 1427 1427 1428 1427 1427 1427 1427 1427 1427 1427 1426 1426 1426 1425 1425 1424 1424 1423
1432 1431 1430 1429 1428 1428 1427 1427 1426 1426 1426 1426 1426 1426 1426 1426 1426 1426 1425 1425 1425 1424 1424 1424 1424 1424 1425 1425 1425 1425 1425 1425 1425 1425 1425 1425 1424 1424 1424 1423 1423 1422 1422 1421
1432 1430 1429 1428 1428 1427 1427 1426 1426 1425 1425 1425 1425 1425 1424 1424 1424 1424 1423 1423 1423 1422 1423 1422 1422 1423 1423 1424 1423 1423 1423 1423 1423 1423 1423 1422 1422 1422 1422 1421 1421 1420 1420 1419
1432 1431 1430 1429 1428 1427 1426 1426 1425 1425 1425 1424 1424 1423 1423 1423 1422 1422 1422 1421 1421 1421 1421 1421 1421 1421 1421 1421 1421 1421 1421 1421 1421 1421 1421 1421 1420 1420 1420 1419 1419 1418 1418 1417
1433 1432 1430 1429 1428 1427 1427 1426 1426 1425 1424 1424 1424 1423 1422 1422 1422 1421 1421 1421 1420 1420 1420 1420 1420 1420 1420 1420 1420 1420 1419 1419 1419 1419 1419 1419 1419 1418 1418 1417 1416 1416 1415 1415